Tracking 19796 objects as of 19-Jul-2019
HD Live streaming from Space Station
objects crossing your sky now

FENGYUN 1C DEB

Track FENGYUN 1C DEB now!
10-day predictions


NORAD ID: 35203
Int'l Code: 1999-025DPK
Perigee: 795.0 km
Apogee: 1,622.2 km
Inclination: 102.1 °
Period: 109.5 minutes
Semi major axis: 7579 km
RCS: 0.0151 m2 (small)
Launch date: May 10, 1999
Source: People's Republic of China (PRC)
Launch site: Taiyaun Space Center, China (TSC)

Note: This is SATELLITE DEBRIS
aabbcc
Your satellite tracking list
Your tracking list is empty




NASA's NSSDC Master Catalog

Two Line Element Set (TLE):
1 35203U 99025DPK 19196.64000881  .00001126  00000-0  14623-2 0  9999
2 35203 102.0705 137.8028 0545657 163.8784 198.0476 13.15629856568312
Source of the keplerian elements: AFSPC